Regional Weather Roundup
Issued by NWS

Home | Current Version | Previous Version | Graphics & Text | Print | Product List | Glossary On
Versions: 1 2 3 4 5 6 7 8 9 10 11 12 13 14 15 16 17 18 19 20 21 22 23 24 25 26 27 28 29 30 31 32 33 34 35 36 37 38 39 40 41 42 43 44 45 46 47 48 49 50
000
ASUS43 KOAX 301510
RWRNE

WEATHER ROUNDUP FOR NEBRASKA
NATIONAL WEATHER SERVICE OMAHA NE
1000 AM CDT TUE SEP 30 2014

NOTES: SATELLITE DATA IS BEING USED TO AUGMENT CLOUD COVER ABOVE
       12000 FEET.
       "FAIR" INDICATES FEW OR NO CLOUDS BELOW 12,000 FEET WITH NO
       SIGNIFICANT WEATHER AND/OR OBSTRUCTIONS TO VISIBILITY.

  * THESE STATIONS DO NOT REPORT WEATHER SUCH AS RAIN...SNOW OR FOG.

NEZ001>004-019>022-054>056-301600-
NEBRASKA PANHANDLE

CITY           SKY/WX    TMP DP  RH WIND       PRES   REMARKS
SCOTTSBLUFF    CLOUDY    56  46  69 W13       29.72R
ALLIANCE       CLOUDY    52  48  86 W16       29.69R
CHADRON        CLOUDY    54  49  83 W26G36    29.55R
KIMBALL        CLOUDY    55  42  62 W15       29.79R
SIDNEY         CLOUDY    57  43  59 SW20      29.79R
$$

NEZ057>060-069>072-079>082-301600-
SOUTHWEST NEBRASKA

CITY           SKY/WX    TMP DP  RH WIND       PRES   REMARKS
NORTH PLATTE   SUNNY     58  49  72 S10       29.77S
IMPERIAL       SUNNY     58  48  69 SW14      29.80F
LEXINGTON      SUNNY     62  53  73 SE5       29.79S
MCCOOK         SUNNY     59  52  77 SW8       29.82S
OGALLALA       MOSUNNY   60  51  72 SW12      29.77S
$$

NEZ005>010-023>029-035>040-094-301600-
NORTH CENTRAL NEBRASKA

CITY           SKY/WX    TMP DP  RH WIND       PRES   REMARKS
VALENTINE      MOSUNNY   62  48  60 S25G31    29.60F
AINSWORTH      PTSUNNY   61  48  62 S18       29.67S
BROKEN BOW     SUNNY     62  50  64 S12       29.77S
O`NEILL        MOSUNNY   67  59  76 S22G28    29.73R
ORD            MOSUNNY   64  52  64 S14       29.77R
THEDFORD       MOSUNNY   62  48  61 SW17G30   29.69F
$$

NEZ041-046>049-061>064-073>077-083>087-301600-
SOUTH CENTRAL NEBRASKA

CITY           SKY/WX    TMP DP  RH WIND       PRES   REMARKS
GRAND ISLAND   MOSUNNY   69  59  70 S16G24    29.81F
AURORA         CLOUDY    65  60  82 S13       29.82S
HASTINGS       CLOUDY    66  57  72 SW12      29.82S
HEBRON         RAIN      63  60  89 S13       29.87S
HOLDREGE       SUNNY     62  51  67 S8        29.82F
KEARNEY *      SUNNY     64  50  59 S10       29.82F
YORK           CLOUDY    63  63 100 S9        29.84S
$$

NEZ011>018-030>034-042>045-301600-
NORTHEAST NEBRASKA

CITY           SKY/WX    TMP DP  RH WIND       PRES   REMARKS
NORFOLK        CLOUDY    66  62  87 SE18G24   29.79F
ALBION         PTSUNNY   67  60  79 S15       29.79R
BLAIR          CLOUDY    66  59  77 SE8       29.87S
COLUMBUS *     CLOUDY    66  59  77 S15       29.84R
FREMONT        CLOUDY    67  59  76 SE8       29.86S
TEKAMAH        CLOUDY    65  59  81 SE7       29.86S
WAYNE          LGT RAIN  62  60  93 SE15      29.82F
$$

NEZ050>053-065>068-078-088>093-301600-
SOUTHEAST NEBRASKA

CITY           SKY/WX    TMP DP  RH WIND       PRES   REMARKS
LINCOLN        LGT RAIN  68  60  75 S15       29.87R
OMAHA EPPLEY   CLOUDY    67  58  72 SE10      29.87F
BEATRICE       CLOUDY    68  59  73 SW7       29.88S
FALLS CITY     MOSUNNY   71  61  70 S9        29.88F
NEBRASKA CITY  PTSUNNY   71  57  61 S12       29.88S
PLATTSMOUTH      N/A     68  59  73 SE9       29.88S
$$

NEZ044-045-051>053-067-301600-
OMAHA AREA

CITY           SKY/WX    TMP DP  RH WIND       PRES   REMARKS
OMAHA EPPLEY   CLOUDY    67  58  72 SE10      29.87F
BLAIR          CLOUDY    66  59  77 SE8       29.87S
FREMONT        CLOUDY    67  59  76 SE8       29.86S
MILLARD        CLOUDY    66  59  78 SE6       29.87S
OFFUTT AFB     CLOUDY    67  63  87 SE9       29.87S
PLATTSMOUTH      N/A     68  59  73 SE9       29.88S
WAHOO          CLOUDY    65  59  78 S6        29.86R
$$



USA.gov is the U.S. government's official web portal to all federal, state and local government web resources and services.